MFC-Alkoven Außentemperatur Messungen

Zurück zum Überblick

Zeitpunkt Temperatur Luftfeuchte
31.03.2020 07:56:35 1,8 C 73,0%
31.03.2020 07:49:33 1,7 C 75,0%
31.03.2020 07:42:32 1,4 C 78,0%
31.03.2020 07:35:30 0,5 C 79,0%
31.03.2020 07:28:29 -0,1 C 79,0%
31.03.2020 07:21:26 -0,6 C 79,0%
31.03.2020 07:14:24 -1,1 C 79,0%
31.03.2020 07:07:22 -1,4 C 80,0%
31.03.2020 07:00:21 -1,8 C 80,0%
31.03.2020 06:53:19 -2,1 C 80,0%
31.03.2020 06:46:16 -2,4 C 81,0%
31.03.2020 06:39:15 -2,7 C 80,0%
31.03.2020 06:32:14 -2,9 C 81,0%
31.03.2020 06:25:10 -3,1 C 81,0%
31.03.2020 06:18:08 -3,2 C 81,0%
31.03.2020 06:11:06 -3,3 C 80,0%
31.03.2020 06:04:02 -3,0 C 79,0%
31.03.2020 05:56:59 -3,8 C 80,0%
31.03.2020 05:49:57 -4,2 C 81,0%
31.03.2020 05:42:53 -4,3 C 81,0%
31.03.2020 05:35:52 -4,3 C 82,0%
31.03.2020 05:28:56 -4,4 C 82,0%
31.03.2020 05:21:49 -4,4 C 81,0%
31.03.2020 05:14:48 -4,5 C 81,0%
31.03.2020 05:07:45 -4,7 C 80,0%
31.03.2020 05:00:43 -4,7 C 80,0%
31.03.2020 04:53:43 -4,7 C 81,0%
31.03.2020 04:46:42 -4,5 C 81,0%
31.03.2020 04:39:41 -4,6 C 81,0%
31.03.2020 04:32:37 -4,7 C 80,0%
31.03.2020 04:25:35 -4,7 C 80,0%
31.03.2020 04:18:33 -4,7 C 81,0%
31.03.2020 04:11:30 -4,8 C 80,0%
31.03.2020 04:04:27 -4,9 C 80,0%
31.03.2020 03:57:24 -4,9 C 80,0%
31.03.2020 03:50:22 -4,9 C 80,0%
31.03.2020 03:43:19 -4,8 C 80,0%
31.03.2020 03:36:17 -4,7 C 82,0%
31.03.2020 03:29:15 -4,7 C 82,0%
31.03.2020 03:22:13 -4,8 C 82,0%
31.03.2020 03:15:11 -4,9 C 80,0%
31.03.2020 03:08:08 -4,9 C 80,0%
31.03.2020 03:01:06 -4,8 C 80,0%
31.03.2020 02:54:03 -4,8 C 80,0%
31.03.2020 02:47:01 -4,7 C 80,0%
31.03.2020 02:39:58 -4,7 C 80,0%
31.03.2020 02:32:56 -4,7 C 80,0%
31.03.2020 02:25:53 -4,7 C 79,0%
31.03.2020 02:18:50 -4,3 C 80,0%
31.03.2020 02:11:47 -4,3 C 81,0%
31.03.2020 02:04:51 -4,4 C 80,0%
31.03.2020 01:57:44 -4,5 C 79,0%
31.03.2020 01:50:43 -4,4 C 79,0%
31.03.2020 01:43:41 -4,3 C 78,0%
31.03.2020 01:36:38 -4,2 C 78,0%
31.03.2020 01:29:35 -4,0 C 78,0%
31.03.2020 01:22:33 -3,9 C 78,0%
31.03.2020 01:15:31 -3,9 C 79,0%
31.03.2020 01:08:29 -3,8 C 79,0%
31.03.2020 01:01:26 -3,7 C 79,0%
31.03.2020 00:54:25 -3,6 C 78,0%
31.03.2020 00:47:22 -3,5 C 77,0%
31.03.2020 00:40:20 -3,4 C 77,0%
31.03.2020 00:33:17 -3,4 C 78,0%
31.03.2020 00:26:15 -3,4 C 78,0%
31.03.2020 00:19:15 -3,3 C 77,0%
31.03.2020 00:12:13 -3,3 C 76,0%
31.03.2020 00:05:13 -3,1 C 76,0%